Location: Unspecified
(0.0000°N, 0.0000°E)
Time: 21:03:40
(UTC+00:00)

Courier 1B Rocket - Visible Passes

Search period start: 11 December 2017 00:00
Search period end: 21 December 2017 00:00
Orbit: 920 x 1202 km, 28.2° (Epoch: 10 December)

Date Brightness Start Highest point End Pass type
(mag) Time Alt. Az. Time Alt. Az. Time Alt. Az.
11 Dec 7.7 02:04:36 12° SSE 02:04:36 12° SSE 02:05:10 10° SSE visible
12 Dec 7.5 02:53:32 12° SSW 02:53:32 12° SSW 02:55:14 10° S visible
15 Dec 6.8 18:58:28 10° N 19:00:04 11° NNE 19:00:24 11° NNE visible
16 Dec 6.6 19:47:54 10° NNW 19:50:12 19° N 19:50:12 19° N visible
17 Dec 6.4 18:47:41 10° NNW 18:51:50 17° NNE 18:53:44 15° NE visible
17 Dec 7.1 20:39:20 10° NW 20:40:10 14° NW 20:40:10 14° NW visible
18 Dec 5.5 19:38:34 10° NW 19:43:50 39° NNE 19:43:50 39° NNE visible
19 Dec 7.8 05:16:12 10° S 05:18:50 12° SSE 05:21:31 10° SE visible
19 Dec 5.9 18:37:57 10° NNW 18:43:27 27° NNE 18:47:39 14° ENE visible
19 Dec 6.1 20:30:36 10° WNW 20:34:06 34° WNW 20:34:06 34° WNW visible
20 Dec 4.8 19:29:30 10° NW 19:36:02 65° NNE 19:38:04 43° E visible
20 Dec 7.5 21:23:52 10° W 21:24:32 13° W 21:24:32 13° W visible
